Torna al catalogo

STARLINK-5569

AttivoComunicazioniVLEO
NORAD 55379·PAYLOAD·🇺🇸 United States

Lanciato Jan 26, 2023 da Cape Canaveral Space Force Station

Loading…

Prossimi Passaggi (prossime 24 ore)

TLE

AggiornatoSource: CelesTrak SupGP

Epoca: Sep 14, 2026, 22:21 UTC

1 55379C 23013BA  26257.93173611 -.00043076  00000+0 -15600-2 0  2573
2 55379  43.0042 329.5292 0002709 277.3996  75.7787 15.27601462    13

Traccia STARLINK-5569 in tempo reale con AllMySat

Download on the App Store